Weather History for Elkins, WV

Change the Weather History Date:

Thursday, January 2, 2014

  Actual Average Record
Temperature  
Mean Temperature 25 °F 29 °F  
Max Temperature 34 °F 39 °F 68 °F (2000)
Min Temperature 15 °F 20 °F -18 °F (1899)
Degree Days  
Heating Degree Days 40 36  
Month to date heating degree days 72 72  
Since 1 July heating degree days 2282 2363  
Cooling Degree Days 0 0  
Month to date cooling degree days 0 0  
Year to date cooling degree days 0 0  
Moisture  
Dew Point 23 °F    
Average Humidity 86    
Maximum Humidity 92    
Minimum Humidity 80    
Precipitation  
Precipitation 0.22 in 0.10 in 1.13 in (2006)
Month to date precipitation 0.22 0.20  
Year to date precipitation 0.22 0.20  
Snow  
Snow 2.50 in - - ()
Month to date snowfall 2.5  
Since 1 September snowfall 18.4  
Snow Depth 0.00 in    
Sea Level Pressure  
Sea Level Pressure 29.79 in    
Wind  
Wind Speed 3 mph (NW)    
Max Wind Speed 18 mph    
Max Gust Speed 26 mph    
Visibility 6 miles    
Events Rain , Snow    
T = Trace of Precipitation, MM = Missing Value Source: NWS Daily Summary

Daily Weather History Graph

Daily Weather History Graph

Search for Another Location

Airport:

Trip Planner

Search our weather history database for the weather conditions in past years. The results will help you decide how hot, cold, wet, or windy it might be!

Date:

Astronomy

Jan. 02, 2014 Rise Set
Actual Time 7:38 AM EST 5:09 PM EST
Civil Twilight 7:08 AM EST 5:38 PM EST
Nautical Twilight 6:35 AM EST 6:12 PM EST
Astronomical Twilight 6:02 AM EST 6:44 PM EST
Moon 8:19 AM EST (1/2) 7:02 PM EST (1/2)
Length of Visible Light 10h 30m
Length of Day
9h 30m
New Moon, 2% of the Moon is Illuminated
Jan 2
New Moon
Jan 7
First Quarter
Jan 15
Full
Jan 24
Last Quarter
Jan 30
New

Hourly Weather History & Observations

Time (EST) Temp. Windchill Dew Point Humidity Pressure Visibility Wind Dir Wind Speed Gust Speed Precip Events Conditions
12:51 AM 21.9 °F - 19.9 °F 92% 30.08 in 10.0 mi Calm Calm - N/A   Clear
1:51 AM 21.9 °F - 19.0 °F 89% 30.07 in 10.0 mi Calm Calm - N/A   Clear
2:51 AM 21.0 °F - 19.0 °F 92% 30.06 in 10.0 mi Calm Calm - N/A   Clear
3:51 AM 21.9 °F - 19.0 °F 89% 30.03 in 10.0 mi Calm Calm - N/A   Clear
4:51 AM 21.9 °F - 19.9 °F 92% 30.01 in 10.0 mi Calm Calm - N/A   Clear
5:51 AM 24.1 °F - 21.0 °F 88% 29.99 in 10.0 mi Calm Calm - N/A   Clear
6:51 AM 23.0 °F - 19.9 °F 88% 29.99 in 10.0 mi Calm Calm - N/A   Mostly Cloudy
7:51 AM 21.9 °F - 19.0 °F 89% 29.98 in 10.0 mi Calm Calm - N/A   Scattered Clouds
8:51 AM 26.1 °F - 23.0 °F 88% 29.96 in 10.0 mi Calm Calm - N/A   Overcast
9:51 AM 28.0 °F - 25.0 °F 88% 29.91 in 10.0 mi Calm Calm - N/A   Overcast
10:51 AM 30.9 °F - 26.1 °F 82% 29.86 in 10.0 mi Calm Calm - 0.00 in   Overcast
11:51 AM 30.9 °F - 26.1 °F 82% 29.80 in 10.0 mi Calm Calm - 0.00 in   Overcast
12:26 PM 32.0 °F - 26.6 °F 80% 29.68 in 2.5 mi Calm Calm - 0.00 in Snow Light Snow
12:41 PM 32.0 °F - 26.6 °F 80% 29.68 in 8.0 mi Calm Calm - 0.01 in Snow Light Snow
12:51 PM 33.1 °F - 28.0 °F 82% 29.75 in 10.0 mi Calm Calm - 0.01 in   Overcast
1:51 PM 33.1 °F - 28.9 °F 85% 29.71 in 10.0 mi Calm Calm - 0.01 in   Overcast
2:51 PM 33.1 °F - 30.9 °F 92% 29.69 in 5.0 mi Calm Calm - 0.03 in Rain Light Rain
3:51 PM 33.1 °F - 30.9 °F 92% 29.68 in 3.0 mi Calm Calm - 0.02 in Rain Rain
4:03 PM 33.8 °F - 30.2 °F 87% 29.62 in 4.0 mi Calm Calm - 0.01 in Rain Light Rain
4:30 PM 33.8 °F - 30.2 °F 87% 29.61 in 2.5 mi Calm Calm - 0.03 in Snow Light Snow
4:37 PM 33.8 °F - 30.2 °F 87% 29.61 in 5.0 mi Calm Calm - 0.03 in Rain Light Rain
4:51 PM 33.1 °F - 32.0 °F 96% 29.67 in 3.0 mi Calm Calm - 0.04 in Rain Light Rain
5:51 PM 33.1 °F 30.0 °F 30.9 °F 92% 29.69 in 3.0 mi NNW 3.5 mph - 0.03 in Snow Light Snow
6:12 PM 33.8 °F 27.7 °F 28.4 °F 81% 29.63 in 7.0 mi WNW 6.9 mph - 0.00 in Snow Light Snow
6:23 PM 33.8 °F - 28.4 °F 81% 29.63 in 4.0 mi Calm Calm - 0.00 in Snow Light Snow
6:51 PM 32.0 °F 26.4 °F 28.9 °F 88% 29.72 in 5.0 mi WNW 5.8 mph - 0.01 in Snow Light Snow
7:51 PM 30.9 °F 25.2 °F 27.0 °F 85% 29.73 in 4.0 mi WNW 5.8 mph - 0.01 in Snow Light Snow
8:04 PM 30.2 °F 22.6 °F 26.6 °F 86% 29.65 in 2.5 mi West 8.1 mph - 0.00 in Snow Light Snow
8:28 PM 30.2 °F 22.6 °F 26.6 °F 86% 29.65 in 2.0 mi NW 8.1 mph - 0.01 in Snow Light Snow
8:38 PM 30.2 °F 21.3 °F 26.6 °F 86% 29.66 in 1.8 mi WNW 10.4 mph 19.6 mph 0.02 in Snow Light Snow
8:48 PM 30.2 °F 21.3 °F 26.6 °F 86% 29.66 in 2.5 mi WNW 10.4 mph 17.3 mph 0.02 in Snow Light Snow
8:51 PM 28.9 °F 19.2 °F 25.0 °F 85% 29.74 in 2.5 mi NNW 11.5 mph 17.3 mph 0.02 in Snow Light Snow
9:09 PM 28.4 °F 19.1 °F 24.8 °F 86% 29.68 in 1.8 mi NW 10.4 mph 17.3 mph 0.01 in Snow Light Snow
9:41 PM 23.0 °F 11.1 °F 17.6 °F 80% 29.71 in 2.0 mi NNW 12.7 mph 26.5 mph 0.02 in Snow Light Snow
9:51 PM 23.0 °F 14.7 °F 18.0 °F 81% 29.80 in 2.0 mi NW 6.9 mph - 0.02 in Snow Light Snow
10:02 PM 21.2 °F 11.7 °F 17.6 °F 86% 29.73 in 3.0 mi WNW 8.1 mph 18.4 mph 0.00 in Snow Light Snow
10:15 PM 21.2 °F 10.1 °F 15.8 °F 80% 29.74 in 3.0 mi WNW 10.4 mph 16.1 mph 0.01 in Snow Light Snow
10:37 PM 19.4 °F 6.6 °F 14.0 °F 80% 29.76 in 2.5 mi NNW 12.7 mph 23.0 mph 0.01 in Snow Light Snow
10:51 PM 18.0 °F 4.2 °F 12.0 °F 78% 29.86 in 2.5 mi NW 13.8 mph - 0.01 in Snow Light Snow
11:06 PM 17.6 °F 5.7 °F 12.2 °F 79% 29.79 in 4.0 mi NW 10.4 mph - 0.00 in Snow Light Snow
11:16 PM 17.6 °F 3.7 °F 10.4 °F 73% 29.79 in 4.0 mi WNW 13.8 mph 19.6 mph 0.00 in Snow Light Snow
11:51 PM 16.0 °F -0.4 °F 9.0 °F 74% 29.91 in 3.0 mi WNW 18.4 mph 23.0 mph 0.01 in Snow Light Snow